Location: Newark
(0.5300°S, 127.4800°E)
Time: 05:53:16
(UTC+00:00)

Vanguard 3 - Pass Details

Date: 22 September 2019
Orbit: 508 x 3262 km, 33.3° (Epoch: 21 October)

Event Time Altitude Azimuth Distance (km) Brightness Sun altitude
Rises 23:01:30 0° 289° (WNW) 5,228 10.7 24.7°
Reaches altitude 10° 23:06:07 10° 306° (NW) 4,702 10.7 25.8°
Maximum altitude 23:15:27 20° 347° (NNW) 4,673 11.0 28.2°
Drops below altitude 10° 23:27:21 10° 28° (NNE) 6,062 12.0 31.1°
Sets 23:34:52 0° 43° (NE) 7,219 12.5 33.0°
